Kosmos-158

operational
NORAD ID: 2801 Int'l Des: 1967-045 Owner: OKB10 Country: SU
LEOCIRCULAR

Über Kosmos-158

Beschreibung wird geladen...

Live-Position

3D-Globus wird geladen...

Nächste Überflüge

Höhenverlauf

Altitude vs Time

uPlot chart will show altitude changes over time

Zweizeiliger Elementsatz

1 02801U 67045A 25340.68303302 .00000117 00000-0 47801-4 0 9995
2 02801 74.0415 58.9312 0057909 313.1272 46.5045 14.36915466 68778
Epoch: 6. Dez. 2025 • Age: 24 hours

Aktueller Status

Höhe 799.1 km
Geschwindigkeit 7.44 km/s
Subsatellitenpunkt 1.58°N, 89.33°W
Typ other

Große Konstellationen

Loading constellations...